Starlink 3658

operational
NORAD ID: 52107 Int'l Des: 2022-029 Owner: SPXS Country: US Constellation: starlink
LEOCIRCULAR

关于 Starlink 3658

正在加载描述...

实时位置

正在加载3D地球...

即将过境

高度历史

Altitude vs Time

uPlot chart will show altitude changes over time

两行轨道根数

1 52107U 22029V 25258.95128984 .00001194 00000-0 93048-4 0 9991
2 52107 53.2166 143.5550 0001427 85.3395 274.7760 15.08849127194406
Epoch: Sep 15, 2025 • Age: 21 hours

当前状态

高度 540.6 km
速度 7.60 km/s
星下点 28.46°N, 127.44°W
发射日期 Mar 19, 2022
运行时间 3.4 years
类型 internet

技术详情

分类 Payload
质量 297.00 kg
干质量 275.00 kg
总质量 297.00 kg
长度 0.20 m
直径 2.80 m
跨度 9.00 m
形状 Box + pan
制造商 SPXS
平台类型 Starlink
阶段状态 In Orbit
所有者/国家 SPXS/US

大型星座

Loading constellations...